• en Suisse
  • Liste des pays
  • À 7 jours
  • Température de l'eau
  • Carte satellitaire
  • Carte météo
  • Widgets météo
  • user-avatar
    Se connecter

    Météo par heure à Seredivka

    Ce jour, 18 Juillet, Mercredi

    Heure Température Précipitation Vent Pression Humidité
    00:00 +19°C° 0,8 mm 2 m/s 735 mmHg 94%
    01:00 +19°C° 0,8 mm 2 m/s 735 mmHg 95%
    02:00 +18°C° 0 mm 3 m/s 735 mmHg 94%
    03:00 +18°C° 1,1 mm 3 m/s 735 mmHg 94%
    04:00 +18°C° 1,1 mm 3 m/s 735 mmHg 94%
    05:00 +18°C° 1,1 mm 4 m/s 735 mmHg 94%
    06:00 +19°C° 1,4 mm 4 m/s 735 mmHg 93%
    07:00 +19°C° 1,4 mm 4 m/s 735 mmHg 92%
    08:00 +19°C° 0 mm 4 m/s 735 mmHg 92%
    09:00 +19°C° 1,6 mm 4 m/s 735 mmHg 91%
    10:00 +20°C° 1,6 mm 4 m/s 735 mmHg 90%
    11:00 +20°C° 1,6 mm 4 m/s 735 mmHg 89%
    12:00 +21°C° 0,6 mm 5 m/s 735 mmHg 87%
    13:00 +21°C° 0,6 mm 5 m/s 735 mmHg 86%
    14:00 +22°C° 0 mm 4 m/s 735 mmHg 86%
    15:00 +22°C° 0,3 mm 4 m/s 735 mmHg 85%
    16:00 +22°C° 0,3 mm 4 m/s 735 mmHg 84%
    17:00 +22°C° 0,3 mm 5 m/s 735 mmHg 83%
    18:00 +21°C° 0,1 mm 4 m/s 736 mmHg 86%
    19:00 +21°C° 0,1 mm 4 m/s 736 mmHg 90%
    20:00 +20°C° 0,1 mm 3 m/s 736 mmHg 93%
    21:00 +19°C° 0,1 mm 3 m/s 736 mmHg 94%
    22:00 +19°C° 0,1 mm 3 m/s 736 mmHg 95%
    23:00 +18°C° 0,1 mm 3 m/s 736 mmHg 96%

    Demain, 19 Juillet, Jeudi

    Heure Température Précipitation Vent Pression Humidité
    00:00 +18°C° 0,1 mm 3 m/s 736 mmHg 96%
    01:00 +18°C° 0,1 mm 3 m/s 736 mmHg 96%
    02:00 +18°C° 0,1 mm 3 m/s 736 mmHg 96%
    03:00 +18°C° 0,1 mm 3 m/s 736 mmHg 96%
    04:00 +18°C° 0,1 mm 3 m/s 736 mmHg 95%
    05:00 +18°C° 0,1 mm 3 m/s 737 mmHg 95%
    06:00 +19°C° 0,1 mm 3 m/s 737 mmHg 90%
    07:00 +20°C° 0,1 mm 3 m/s 737 mmHg 85%
    08:00 +22°C° 0,1 mm 3 m/s 737 mmHg 80%
    09:00 +24°C° 0 mm 3 m/s 737 mmHg 75%
    10:00 +25°C° 0 mm 4 m/s 737 mmHg 70%
    11:00 +27°C° 0 mm 4 m/s 737 mmHg 64%
    12:00 +27°C° 0,1 mm 4 m/s 737 mmHg 62%
    13:00 +28°C° 0,1 mm 4 m/s 737 mmHg 60%
    14:00 +28°C° 0,1 mm 5 m/s 737 mmHg 58%
    15:00 +28°C° 0,1 mm 4 m/s 737 mmHg 61%
    16:00 +28°C° 0,1 mm 4 m/s 737 mmHg 64%
    17:00 +28°C° 0,1 mm 3 m/s 737 mmHg 67%
    18:00 +26°C° 0,1 mm 3 m/s 737 mmHg 71%
    19:00 +25°C° 0,1 mm 3 m/s 737 mmHg 74%
    20:00 +23°C° 0,1 mm 2 m/s 737 mmHg 78%
    21:00 +23°C° 0 mm 2 m/s 737 mmHg 80%
    22:00 +21°C° 0 mm 2 m/s 737 mmHg 82%
    23:00 +21°C° 0 mm 2 m/s 737 mmHg 83%

    Après-demain, 20 Juillet, Vendredi

    Heure Température Précipitation Vent Pression Humidité
    00:00 +20°C° 0 mm 2 m/s 737 mmHg 85%
    01:00 +20°C° 0 mm 2 m/s 737 mmHg 87%
    02:00 +19°C° 0 mm 2 m/s 737 mmHg 89%
    03:00 +19°C° 0,1 mm 2 m/s 737 mmHg 89%
    04:00 +20°C° 0,1 mm 2 m/s 737 mmHg 89%
    05:00 +20°C° 0,1 mm 2 m/s 737 mmHg 89%
    06:00 +21°C° 0,1 mm 2 m/s 738 mmHg 84%
    07:00 +24°C° 0,1 mm 3 m/s 738 mmHg 79%
    08:00 +26°C° 0,1 mm 3 m/s 738 mmHg 73%
    09:00 +27°C° 1,4 mm 3 m/s 738 mmHg 70%
    10:00 +28°C° 1,4 mm 4 m/s 738 mmHg 66%
    11:00 +28°C° 1,4 mm 4 m/s 738 mmHg 62%
    12:00 +29°C° 0,6 mm 4 m/s 738 mmHg 62%
    13:00 +29°C° 0,6 mm 4 m/s 738 mmHg 61%
    14:00 +29°C° 0,6 mm 3 m/s 738 mmHg 61%
    15:00 +29°C° 0,4 mm 3 m/s 738 mmHg 64%
    16:00 +28°C° 0,4 mm 3 m/s 738 mmHg 66%
    17:00 +28°C° 0,4 mm 3 m/s 738 mmHg 69%
    18:00 +27°C° 0,3 mm 2 m/s 738 mmHg 73%
    19:00 +25°C° 0,3 mm 2 m/s 738 mmHg 77%
    20:00 +24°C° 0,3 mm 1 m/s 739 mmHg 81%
    21:00 +23°C° 0,1 mm 1 m/s 739 mmHg 82%
    22:00 +23°C° 0,1 mm 1 m/s 739 mmHg 84%
    23:00 +21°C° 0,1 mm 2 m/s 739 mmHg 86%

    21 Juillet, Samedi

    Heure Température Précipitation Vent Pression Humidité
    00:00 +21°C° 0 mm 2 m/s 739 mmHg 87%
    01:00 +21°C° 0 mm 1 m/s 739 mmHg 89%
    02:00 +21°C° 0 mm 1 m/s 739 mmHg 90%
    03:00 +21°C° 0 mm 1 m/s 739 mmHg 90%
    04:00 +21°C° 0 mm 1 m/s 739 mmHg 91%
    05:00 +21°C° 0 mm 1 m/s 739 mmHg 91%
    06:00 +23°C° 0 mm 1 m/s 739 mmHg 85%
    07:00 +24°C° 0 mm 1 m/s 739 mmHg 80%
    08:00 +26°C° 0 mm 1 m/s 740 mmHg 74%
    09:00 +27°C° 0,1 mm 2 m/s 740 mmHg 69%
    10:00 +28°C° 0,1 mm 2 m/s 740 mmHg 64%
    11:00 +29°C° 0,1 mm 3 m/s 740 mmHg 60%
    12:00 +30°C° 0,1 mm 3 m/s 740 mmHg 58%
    13:00 +30°C° 0,1 mm 3 m/s 740 mmHg 57%
    14:00 +30°C° 0,1 mm 3 m/s 740 mmHg 56%
    15:00 +30°C° 0,6 mm 3 m/s 739 mmHg 59%
    16:00 +29°C° 0,6 mm 3 m/s 739 mmHg 63%
    17:00 +29°C° 0,6 mm 2 m/s 739 mmHg 67%
    18:00 +27°C° 0,3 mm 2 m/s 740 mmHg 71%
    19:00 +26°C° 0,3 mm 2 m/s 740 mmHg 76%
    20:00 +24°C° 0,3 mm 2 m/s 740 mmHg 81%
    21:00 +24°C° 0,3 mm 2 m/s 740 mmHg 83%
    22:00 +23°C° 0,3 mm 2 m/s 740 mmHg 85%
    23:00 +21°C° 0,3 mm 2 m/s 740 mmHg 88%

    22 Juillet, Dimanche

    Heure Température Précipitation Vent Pression Humidité
    00:00 +21°C° 0 mm 2 m/s 740 mmHg 89%
    01:00 +21°C° 0 mm 2 m/s 740 mmHg 90%
    02:00 +21°C° 0 mm 2 m/s 740 mmHg 91%
    03:00 +21°C° 0 mm 2 m/s 740 mmHg 91%
    04:00 +22°C° 0 mm 1 m/s 740 mmHg 91%
    05:00 +22°C° 0 mm 1 m/s 740 mmHg 91%
    06:00 +23°C° 0 mm 1 m/s 740 mmHg 85%
    07:00 +25°C° 0 mm 1 m/s 740 mmHg 80%
    08:00 +26°C° 0 mm 2 m/s 740 mmHg 74%
    09:00 +27°C° 0 mm 2 m/s 740 mmHg 70%
    10:00 +28°C° 0 mm 2 m/s 740 mmHg 65%
    11:00 +29°C° 0 mm 2 m/s 740 mmHg 60%
    12:00 +30°C° 0,6 mm 3 m/s 740 mmHg 60%
    13:00 +30°C° 0,6 mm 3 m/s 739 mmHg 60%
    14:00 +30°C° 0,6 mm 3 m/s 739 mmHg 60%
    15:00 +29°C° 0,9 mm 3 m/s 739 mmHg 65%
    16:00 +29°C° 0,9 mm 3 m/s 739 mmHg 69%
    17:00 +28°C° 0,9 mm 3 m/s 739 mmHg 74%
    18:00 +27°C° 0,4 mm 2 m/s 739 mmHg 77%
    19:00 +26°C° 0,4 mm 2 m/s 739 mmHg 80%
    20:00 +24°C° 0,4 mm 2 m/s 740 mmHg 83%
    21:00 +24°C° 0,4 mm 2 m/s 740 mmHg 85%
    22:00 +23°C° 0,4 mm 2 m/s 740 mmHg 87%
    23:00 +23°C° 0,4 mm 2 m/s 739 mmHg 89%

    23 Juillet, Lundi

    Heure Température Précipitation Vent Pression Humidité
    00:00 +21°C° 0,1 mm 2 m/s 739 mmHg 90%
    01:00 +21°C° 0,1 mm 2 m/s 739 mmHg 91%
    02:00 +22°C° 0,1 mm 1 m/s 739 mmHg 92%
    03:00 +22°C° 0 mm 1 m/s 740 mmHg 92%
    04:00 +22°C° 0 mm 1 m/s 740 mmHg 92%
    05:00 +22°C° 0 mm 1 m/s 740 mmHg 92%
    06:00 +23°C° 0 mm 1 m/s 740 mmHg 87%
    07:00 +25°C° 0 mm 1 m/s 740 mmHg 82%
    08:00 +26°C° 0 mm 2 m/s 740 mmHg 76%
    09:00 +27°C° 0 mm 2 m/s 740 mmHg 72%
    10:00 +28°C° 0 mm 2 m/s 740 mmHg 67%
    11:00 +29°C° 0 mm 3 m/s 740 mmHg 62%
    12:00 +29°C° 0,4 mm 3 m/s 740 mmHg 61%
    13:00 +30°C° 0,4 mm 2 m/s 739 mmHg 61%
    14:00 +30°C° 0,4 mm 2 m/s 739 mmHg 60%
    15:00 +30°C° 0,3 mm 2 m/s 739 mmHg 61%
    16:00 +30°C° 0,3 mm 2 m/s 739 mmHg 62%
    17:00 +29°C° 0,3 mm 1 m/s 740 mmHg 64%
    18:00 +28°C° 0,1 mm 1 m/s 740 mmHg 68%
    19:00 +26°C° 0,1 mm 1 m/s 740 mmHg 73%
    20:00 +25°C° 0,1 mm 1 m/s 740 mmHg 78%
    21:00 +24°C° 0,1 mm 2 m/s 740 mmHg 81%
    22:00 +24°C° 0,1 mm 2 m/s 740 mmHg 84%
    23:00 +23°C° 0,1 mm 2 m/s 740 mmHg 86%
    Voir plus